MOZHAYETS 4

Satellite information

Favourite Embed

Satellite Type and Status

PAYLOADIN ORBIT

Key statistics

Satellite MOZHAYETS 4 at a glance.

Uptime

8059

Days in orbit

Revolutions

≈ 14.7

Per day

Orbit

SSO

Sun Synchronous Orbit

Inclination

98.3

Latest

Satellite identification and parameters

Extended collection of information and parameters for MOZHAYETS 4.

Object identification

Identified? True

Debris? False

Object name: MOZHAYETS 4

International designator: 2003-042A

Object number (NORAD): 27939

Object ID (CCSDS): 27939

Country: COMMONWEALTH OF INDEPENDENT STATES (CIS)

Current information (Y/N): Y

RCS size: MEDIUM

Orbital parameters

Period: 97.777 minutes

Inclination: 98.3371 deg

SMA: 7030.476 km

Apoapsis: 659.757 km

Periapsis: 644.925 km

RAAN: 105.7014 deg

Eccentricy: 0.00105487

Argument of periapsis: 314.9253 deg

Mean anomaly: 204.7281 deg

Mean motion: 14.72738577 rev/day

Mean motion (dot): 0.00002585 rev/day2

B* drag term: 0.00041288399 1/REarth

Two-line elements (TLE)

Creation date: Oct. 20, 2025, 2:10 a.m.

Reference frame: TEME

Reference center: EARTH

Epoch: Oct. 19, 2025, 10:09 p.m. UTC

TLE line 0: 0 MOZHAYETS 4

TLE line 1: 1 27939U 03042A 25292.92332733 .00002585 00000-0 41288-3 0 9997

TLE line 2: 2 27939 98.3371 105.7014 0010549 314.9253 204.7281 14.72738577180179

Live tracking on map

Real-time ground track for satellite MOZHAYETS 4.

In-orbit conjunctions

There are no conjunctions computed for MOZHAYETS 4, at the moment. Check back to stay up to date, as we update our databases every day.

Go to all conjunctions

Associated space launch

Mozhayets 4 (RS 22) was also a training satellite built by the Mozhaisky military academy. It also tested components to be used in upgraded GLONASS satellites.

MOZHAYETS 4 was lifted into orbit during the mission ‘Kosmos-3M | Mozhaets-4’, on board a Kosmos-3M space rocket.

The launch took place on Sept. 27, 2003, 6:11 a.m. from 132/1 (132L).

For more information about the launch, click the button.

Launch to space Kosmos-3M | Mozhaets-4
Kosmos-3M | Mozhaets-4

Agency: N/A

Status: Launch Successful

Launch date: Sept. 27, 2003, 6:11 a.m. UTC

Rocket: Kosmos-3M

Launch pad: 132/1 (132L)

Location: Plesetsk Cosmodrome, Russian Federation

...

Latest news about this satellite

There are no fresh news available about this satellite. Check back as we update our databases every day.


Newsletter sign-up

Weekly statistics, charts and insights to help you stay on top of the space industry.